Theta_e
287 288 288 286 285 285 284 285 281 284 284 288 290 290 290 291 286 284 284 282 283 283 284 286 286 285 285 285 285 285 284 285 284 285 285 285 284 283 283 284 285 285 285 285
280 284 284 281 284 284 285 285 285 285 283 290 289 285 284 284 282 282 284 282 283 283 284 284 285 286 284 284 285 285 283 283 283 283 283 283 282 281 281 281 283 284 283 283
274 280 280 276 280 282 283 285 284 279 282 282 282 282 282 283 283 281 283 283 282 283 284 284 285 285 284 283 284 283 282 282 282 281 281 281 281 280 279 279 280 281 281 282
275 276 268 279 285 283 280 281 283 282 280 280 280 281 282 283 283 282 283 283 283 284 284 285 285 284 283 283 282 281 280 280 281 280 279 280 279 278 277 278 278 278 279 280
272 272 276 279 281 280 278 278 283 281 279 279 280 281 281 284 285 284 284 285 285 285 284 284 283 283 281 280 279 279 278 278 278 278 277 277 276 275 275 275 275 275 276 277
275 269 266 276 280 281 280 272 283 280 279 279 279 274 278 284 284 284 284 285 285 284 283 282 282 281 278 277 276 276 276 276 276 276 275 274 274 273 274 273 273 274 274 275
273 271 274 282 280 281 270 274 282 281 280 280 277 280 283 285 284 285 285 285 283 283 281 280 280 277 275 275 273 274 274 273 272 272 271 271 270 271 270 269 270 269 270 271
271 268 266 280 279 274 279 283 282 281 281 281 282 282 283 283 283 284 283 282 281 279 278 278 276 274 272 271 272 271 269 268 267 266 266 267 265 265 265 265 265 265 266 268
274 273 280 281 281 283 284 283 282 282 283 282 282 281 282 282 282 281 280 278 277 274 273 273 272 271 269 269 269 267 265 263 263 263 263 263 262 262 262 263 263 264 265 265
275 277 279 281 283 284 284 283 283 284 283 283 281 281 281 281 279 277 276 274 273 271 269 268 269 269 267 267 266 263 262 262 262 261 262 262 262 262 261 261 261 262 262 263
275 278 280 281 282 283 283 284 283 283 283 281 280 279 278 277 274 274 272 271 270 268 267 266 267 266 265 264 263 261 261 261 261 261 261 261 262 262 262 263 263 261 262 263
273 279 279 280 283 284 282 282 282 281 279 276 275 274 273 272 272 270 269 268 266 265 265 264 264 263 263 263 262 260 259 259 259 259 260 260 260 260 265 267 268 269 269 268
279 282 282 282 283 283 282 280 278 276 274 274 272 270 269 268 268 267 265 265 264 263 263 262 261 261 262 262 261 259 258 258 259 259 259 259 259 259 258 262 266 267 268 269
283 282 279 281 280 280 276 274 272 270 270 270 269 267 266 265 264 263 263 263 263 261 260 260 260 260 262 262 261 259 258 258 259 259 259 260 260 260 260 259 259 260 264 266
282 282 281 278 275 273 272 270 268 268 269 267 266 264 263 262 262 262 262 260 260 259 259 260 260 260 262 261 260 258 258 258 259 260 260 261 261 261 261 261 261 261 262 265
280 272 270 271 272 271 268 267 266 267 266 265 263 262 262 261 260 259 259 259 257 258 258 259 259 260 261 259 258 259 259 259 260 260 261 261 262 262 262 262 261 261 262 262
270 269 266 266 268 268 265 265 264 264 263 261 260 260 258 257 256 256 256 257 258 258 259 259 260 260 259 259 258 258 259 260 260 260 261 261 262 263 264 264 263 262 262 265
267 266 265 264 266 265 263 262 262 260 259 259 259 258 256 254 254 255 256 257 257 258 259 261 259 259 259 258 258 260 260 259 260 260 261 262 262 263 264 264 264 264 265 267
262 262 261 262 261 260 259 259 259 258 258 257 256 255 255 255 255 255 256 255 256 257 260 259 261 258 257 258 261 259 259 259 259 260 261 261 261 262 262 262 262 263 263 263
258 258 258 257 257 256 256 257 256 256 256 254 252 252 252 253 253 254 255 256 258 259 260 258 257 257 258 259 259 259 259 258 258 259 259 259 260 260 261 261 261 261 260 261
256 256 255 255 255 255 255 254 254 253 254 253 252 252 252 253 254 254 255 258 260 259 258 257 258 258 259 258 259 259 258 258 258 258 258 258 259 259 260 259 259 260 260 260
254 253 254 253 253 253 254 252 252 251 252 252 252 251 251 252 254 256 258 257 260 259 258 258 258 258 258 257 259 258 258 258 257 257 257 257 258 258 258 259 259 259 259 259
252 252 253 252 251 252 250 251 251 252 251 252 252 253 255 257 259 258 258 260 259 258 259 258 258 259 259 258 258 258 257 257 257 257 257 257 257 257 257 258 259 259 259 259
251 250 251 251 248 249 250 255 253 255 252 252 253 254 256 258 259 261 261 260 259 259 258 258 259 260 256 257 257 257 257 256 256 256 256 256 256 257 257 257 257 258 258 258
249 249 249 248 251 255 253 255 254 255 256 258 259 259 259 260 258 259 259 259 259 258 257 258 259 258 257 257 256 256 256 256 256 256 255 255 255 255 255 256 256 256 257 257
251 254 254 251 253 254 255 256 256 257 257 257 258 259 259 259 259 259 259 259 258 258 257 257 256 256 256 256 256 256 256 256 255 255 255 255 255 255 255 255 255 256 256 256
252 252 254 255 255 256 255 256 256 256 257 257 257 258 258 258 258 258 258 257 257 257 256 255 255 255 254 254 255 255 255 255 254 253 253 254 253 253 254 254 255 255 255 255
Wind_Speed
18 21 21 21 19 23 23 24 24 24 23 21 18 20 13 8 5 5 5 3 3 4 5 7 7 7 8 9 9 10 12 11 10 10 11 11 10 10 11 11 10 10 9 9
17 18 20 23 24 27 24 24 26 25 26 22 12 8 2 4 4 7 6 5 5 6 6 7 9 7 8 10 9 8 10 11 12 10 11 10 10 11 12 13 12 11 11 11
19 15 18 16 23 22 24 23 23 23 13 8 6 5 5 6 7 8 9 7 7 8 8 8 9 8 10 10 8 7 9 10 10 10 11 11 10 12 13 14 14 14 14 14
15 11 20 13 10 8 13 15 13 10 2 1 2 6 7 7 10 11 11 11 9 8 9 10 10 9 9 7 7 10 11 12 12 12 13 13 13 13 14 14 15 16 16 16
9 15 19 24 18 19 14 18 11 4 5 2 6 9 13 10 7 10 12 11 9 6 8 10 10 9 8 8 9 10 12 13 13 13 15 15 16 15 16 15 15 16 18 20
10 14 17 14 4 4 4 12 6 6 4 6 9 10 11 12 11 11 11 10 6 5 9 10 10 10 9 11 11 12 12 13 14 15 15 17 18 19 17 16 18 16 19 19
14 16 12 3 6 2 8 7 9 4 7 10 11 11 14 12 12 10 8 4 6 8 10 10 10 9 11 13 14 14 14 14 15 15 16 17 19 17 17 18 19 20 21 20
5 7 13 5 6 6 3 5 4 9 14 14 13 12 12 13 11 9 5 5 7 9 11 11 11 10 14 16 15 15 16 17 16 16 13 14 18 17 18 18 20 20 20 20
7 6 2 8 10 10 11 10 14 17 14 12 12 13 12 11 8 5 6 7 7 7 11 12 9 8 14 16 15 16 17 17 17 17 15 15 16 17 15 15 15 16 15 16
13 15 22 18 18 18 16 17 16 15 13 11 12 11 10 6 5 6 5 6 6 8 9 12 9 11 11 14 14 15 18 18 16 16 17 16 13 13 13 13 14 15 15 16
13 20 20 19 20 19 18 17 16 12 10 9 7 7 5 4 4 6 6 7 7 8 10 13 12 13 12 13 14 16 16 16 17 14 16 15 14 13 13 15 16 15 15 16
15 19 16 18 16 13 13 16 11 7 4 2 1 4 2 4 4 5 7 8 9 9 11 13 13 14 13 13 13 15 16 14 13 14 14 13 14 14 23 31 33 34 36 30
19 20 19 21 18 15 14 10 4 3 2 4 2 1 2 4 4 6 7 9 10 11 12 13 14 15 14 13 13 15 16 17 13 15 14 15 14 14 16 17 31 33 34 34
18 17 20 21 15 6 1 5 5 4 2 0 1 1 3 5 6 6 8 9 11 11 12 12 13 15 14 13 14 15 16 21 14 13 13 14 14 14 14 15 16 16 22 26
18 15 14 8 1 4 4 5 5 5 5 5 2 2 3 6 7 8 8 8 9 11 12 11 13 15 13 13 15 16 14 12 13 13 13 16 14 15 14 15 15 15 15 20
7 4 1 4 5 6 5 5 5 5 3 3 3 4 5 7 8 8 9 9 8 10 12 12 13 14 13 14 16 13 12 18 17 13 13 13 13 13 13 13 13 12 12 14
2 5 3 5 6 6 6 2 2 2 2 3 4 4 5 6 7 9 8 8 9 11 12 12 13 12 13 14 14 11 11 12 16 12 12 12 12 13 13 12 10 11 12 14
4 4 4 3 2 4 3 2 2 2 3 4 5 6 6 5 9 9 10 9 10 10 9 8 9 12 14 14 13 11 10 11 11 12 12 12 12 12 11 12 11 11 10 10
4 5 4 3 3 2 1 3 3 3 4 5 5 6 7 8 9 10 9 9 9 9 6 9 13 13 13 14 13 9 9 11 12 11 11 14 12 11 10 10 11 11 11 10
5 4 3 2 2 1 2 3 3 5 5 5 4 6 9 9 8 8 8 10 9 7 7 10 11 10 12 12 12 8 9 11 11 11 11 11 11 12 10 12 11 10 10 10
4 3 2 2 2 2 3 3 3 5 6 5 7 9 9 8 8 7 8 7 3 4 8 10 7 7 9 10 9 8 9 10 10 10 10 10 11 11 11 11 10 10 9 9
3 2 1 1 2 5 3 3 4 5 6 7 7 7 7 9 8 8 8 7 5 9 7 6 6 11 9 11 6 7 8 9 9 9 9 10 10 10 10 11 10 10 9 9
2 1 2 2 3 4 5 5 5 5 6 6 7 6 7 7 6 6 5 2 4 7 6 5 9 12 12 5 6 7 8 9 9 9 9 9 9 9 9 10 10 10 10 10
2 1 2 2 2 3 5 4 4 6 6 6 7 7 7 5 4 3 3 5 6 7 6 6 8 11 9 5 5 6 6 7 8 8 9 10 8 8 8 9 9 10 9 11
2 1 2 3 4 3 3 4 5 5 4 5 4 3 3 3 3 3 4 4 7 6 6 7 10 10 5 5 6 6 6 6 7 7 8 8 8 8 8 8 8 8 8 8
3 1 1 1 3 3 4 4 4 4 4 4 3 2 2 2 2 3 3 4 5 6 5 5 5 5 5 5 6 6 5 6 6 7 7 7 8 8 8 8 8 8 7 7
2 2 1 1 0 2 3 4 4 4 4 4 4 2 3 3 3 4 5 4 4 5 5 4 4 5 5 5 5 5 5 5 6 6 6 6 6 6 7 7 7 7 7 6
Wind_Direction
258 264 276 283 283 280 271 276 276 288 288 284 288 293 311 246 272 272 231 246 303 300 316 314 309 327 325 322 323 333 333 329 324 323 325 322 315 315 317 314 314 313 310 303
278 278 275 275 272 267 272 272 274 275 274 279 321 11 317 248 256 276 254 276 310 321 323 318 315 307 315 304 308 323 313 306 310 313 314 308 308 311 313 312 306 301 300 299
267 279 283 269 253 262 264 266 272 274 308 356 337 323 301 290 276 293 281 268 298 315 328 321 322 313 294 302 316 309 294 291 290 297 296 295 299 305 308 307 307 300 298 296
271 280 258 266 281 293 284 287 296 312 66 86 335 316 306 283 274 276 284 265 272 300 311 322 323 316 312 307 301 293 293 296 294 289 291 291 294 294 300 302 301 300 295 291
254 250 276 291 289 286 300 288 309 232 171 41 341 313 287 270 268 275 285 284 281 295 309 315 317 323 329 310 298 296 293 292 292 294 293 291 287 286 290 292 290 291 290 288
251 260 264 289 20 17 314 278 122 113 169 301 308 285 290 321 328 299 283 291 295 325 305 311 329 336 329 308 307 300 298 296 297 297 294 292 292 291 290 288 285 285 283 281
244 257 266 284 83 126 245 300 156 177 296 297 281 274 295 296 291 281 275 310 328 311 310 318 338 340 313 308 305 308 309 305 301 298 297 295 295 291 290 288 284 280 278 277
230 263 271 74 122 223 339 138 217 283 296 292 287 283 284 281 282 291 336 328 314 317 310 323 335 336 312 305 316 317 312 306 305 303 297 292 290 290 287 284 280 277 277 276
243 262 215 190 257 262 274 270 289 296 292 293 283 277 275 282 301 317 318 338 341 329 314 314 327 317 302 305 315 311 307 303 302 300 296 291 288 288 288 283 279 279 278 278
258 251 259 268 267 270 275 274 284 284 289 282 272 281 282 298 304 311 329 330 335 320 303 301 313 307 300 305 307 304 299 300 300 296 296 290 283 281 281 281 281 281 280 279
252 257 269 263 262 265 269 275 281 285 288 271 270 263 280 301 312 309 321 324 324 310 302 301 309 306 306 304 305 301 300 300 298 294 293 294 285 283 278 272 270 271 266 268
250 260 262 271 277 280 287 283 288 283 212 193 232 272 303 277 302 314 314 318 309 302 299 299 303 302 303 303 302 304 301 298 296 297 294 292 291 288 280 285 287 285 284 279
256 259 263 268 278 281 287 292 188 198 184 220 203 277 306 296 301 319 303 303 302 302 299 300 301 299 299 302 302 297 293 294 292 290 290 290 288 289 293 287 286 287 287 287
248 258 263 264 272 322 192 134 116 115 119 170 272 34 319 304 309 300 297 304 306 299 293 292 293 292 301 306 301 294 291 291 290 289 288 288 289 288 288 290 293 292 287 286
259 253 264 301 79 144 145 156 184 206 199 200 202 288 304 299 300 303 310 302 294 291 286 289 296 296 306 309 303 299 295 290 290 292 291 290 289 287 286 286 287 289 294 292
265 101 94 236 233 191 192 195 229 222 193 210 245 272 296 298 299 298 294 293 292 295 297 296 297 304 314 312 301 300 300 295 294 295 296 296 295 294 290 285 287 289 292 290
147 247 195 236 217 207 205 197 237 245 263 270 278 290 288 284 289 281 270 273 274 277 285 289 297 314 312 307 313 300 302 300 308 301 302 302 300 301 302 291 288 288 286 287
77 87 72 50 142 181 193 205 236 270 270 288 289 285 283 276 274 285 286 292 288 285 281 290 317 312 317 312 306 308 311 307 310 309 308 312 315 311 320 327 322 310 315 327
113 134 129 135 112 151 233 257 267 283 281 277 280 272 276 272 274 279 286 287 287 287 313 331 319 325 309 306 322 318 313 319 319 318 321 322 321 325 329 334 335 336 338 339
132 118 107 119 108 186 256 269 290 282 278 278 273 272 267 264 263 266 274 275 273 275 320 315 315 311 306 314 329 321 328 326 326 326 329 329 331 332 335 340 343 347 346 347
146 159 179 221 262 282 261 273 272 263 267 251 246 258 262 275 275 268 273 273 296 350 322 311 317 312 317 330 326 336 332 335 334 331 333 334 335 339 342 345 349 355 356 356
164 200 227 287 297 299 289 267 260 254 255 254 249 250 257 269 261 249 240 247 306 327 319 318 320 321 325 324 336 335 335 338 338 336 338 340 342 344 347 351 356 360 5 7
157 230 279 271 270 292 308 278 257 248 257 257 254 254 256 272 291 286 284 124 317 317 318 322 322 325 336 336 339 335 338 341 341 340 342 345 346 347 352 353 359 4 8 14
122 228 273 298 318 275 282 303 277 276 239 256 248 238 254 278 278 252 277 297 308 319 318 307 325 340 330 341 335 339 341 342 343 340 341 345 348 351 357 360 1 2 10 12
156 225 233 244 260 283 288 294 284 264 258 269 285 277 268 267 269 312 305 303 312 332 321 319 328 339 335 339 336 339 338 338 338 340 338 340 343 348 354 357 1 3 6 12
179 194 319 263 281 306 311 313 315 323 329 329 324 348 326 315 302 297 308 314 319 322 315 318 327 336 332 330 326 330 331 334 344 339 336 336 338 343 346 351 356 357 358 358
184 226 226 204 5 341 335 322 322 331 337 334 323 1 345 337 336 332 327 325 326 318 314 318 319 331 320 318 321 324 326 332 336 331 327 330 334 335 338 339 341 345 347 351